Weather History for Yuma MCAS, AZ

Change the Weather History Date:

Wednesday, November 7, 2012

  Actual Average Record
Temperature  
Mean Temperature 75 °F 69 °F  
Max Temperature 91 °F 81 °F 94 °F (1950)
Min Temperature 58 °F 57 °F 36 °F (1889)
Degree Days  
Heating Degree Days 0 1  
Month to date heating degree days 0 3  
Since 1 July heating degree days 0 5  
Cooling Degree Days 10 5  
Month to date cooling degree days 73 40  
Year to date cooling degree days 4863 4602  
Growing Degree Days 24 (Base 50)    
Moisture  
Dew Point 36 °F    
Average Humidity 28    
Maximum Humidity 44    
Minimum Humidity 12    
Precipitation  
Precipitation 0.00 in 0.01 in 0.25 in (1905)
Month to date precipitation 0.00 0.05  
Year to date precipitation 2.37 2.88  
Sea Level Pressure  
Sea Level Pressure 29.90 in    
Wind  
Wind Speed 2 mph (ESE)    
Max Wind Speed 12 mph    
Max Gust Speed 13 mph    
Visibility 10 miles    
Events      
T = Trace of Precipitation, MM = Missing Value Source: NWS Daily Summary

Daily Weather History Graph

Daily Weather History Graph

Search for Another Location

Airport:

Trip Planner

Search our weather history database for the weather conditions in past years. The results will help you decide how hot, cold, wet, or windy it might be!

Date:

Astronomy

Nov. 07, 2012 Rise Set
Actual Time 7:01 AM MST 5:42 PM MST
Civil Twilight 6:35 AM MST 6:07 PM MST
Nautical Twilight 6:06 AM MST 6:37 PM MST
Astronomical Twilight 5:37 AM MST 7:06 PM MST
Moon 12:21 AM MST (11/7) 1:33 PM MST (11/7)
Length of Visible Light 11h 32m
Length of Day
10h 40m
Last Quarter, 42% of the Moon is Illuminated
Nov 7
Last Quarter
Nov 13
New
Nov 20
First Quarter
Nov 28
Full
Dec 6
Last Quarter

Hourly Weather History & Observations

Time (MST) Temp. Dew Point Humidity Pressure Visibility Wind Dir Wind Speed Gust Speed Precip Events Conditions
12:55 AM 64.9 °F 39.9 °F 40% 29.96 in 10.0 mi Calm Calm - N/A   Clear
1:55 AM 64.9 °F 35.1 °F 33% 29.94 in 10.0 mi Calm Calm - N/A   Clear
2:55 AM 61.0 °F 35.1 °F 38% 29.94 in 10.0 mi Calm Calm - N/A   Clear
3:55 AM 62.1 °F 37.0 °F 39% 29.93 in 10.0 mi Calm Calm - N/A   Clear
4:55 AM 62.1 °F 37.0 °F 39% 29.93 in 10.0 mi Calm Calm - N/A   Clear
5:55 AM 59.0 °F 37.9 °F 46% 29.95 in 10.0 mi Calm Calm - N/A   Clear
6:55 AM 59.0 °F 37.9 °F 46% 29.96 in 10.0 mi Calm Calm - N/A   Clear
7:55 AM 64.0 °F 32.0 °F 30% 29.97 in 10.0 mi NE 6.9 mph - N/A   Clear
8:55 AM 66.0 °F 34.0 °F 30% 29.97 in 10.0 mi NNE 5.8 mph - N/A   Partly Cloudy
9:55 AM 72.0 °F 35.1 °F 26% 29.97 in 10.0 mi NE 8.1 mph - N/A   Partly Cloudy
10:55 AM 79.0 °F 32.0 °F 18% 29.96 in 10.0 mi NE 8.1 mph - N/A   Partly Cloudy
11:55 AM 84.9 °F 32.0 °F 15% 29.94 in 10.0 mi North 4.6 mph - N/A   Partly Cloudy
12:55 PM 88.0 °F 30.9 °F 13% 29.91 in 10.0 mi Calm Calm - N/A   Partly Cloudy
1:55 PM 89.1 °F 30.0 °F 12% 29.88 in 10.0 mi Calm Calm - N/A   Partly Cloudy
2:55 PM 90.0 °F 33.1 °F 13% 29.86 in 10.0 mi West 4.6 mph - N/A   Partly Cloudy
3:55 PM 89.1 °F 35.1 °F 15% 29.85 in 10.0 mi Variable 3.5 mph - N/A   Partly Cloudy
4:55 PM 89.1 °F 33.1 °F 14% 29.84 in 10.0 mi South 3.5 mph - N/A   Scattered Clouds
5:55 PM 86.0 °F 36.0 °F 17% 29.83 in 10.0 mi Calm Calm - N/A   Scattered Clouds
6:55 PM 79.0 °F 42.1 °F 27% 29.84 in 10.0 mi South 3.5 mph - N/A   Scattered Clouds
7:55 PM 75.0 °F 42.1 °F 31% 29.84 in 10.0 mi South 3.5 mph - N/A   Scattered Clouds
8:55 PM 72.0 °F 39.9 °F 31% 29.85 in 10.0 mi South 3.5 mph - N/A   Scattered Clouds
9:55 PM 69.1 °F 35.1 °F 29% 29.86 in 10.0 mi South 3.5 mph - N/A   Scattered Clouds
10:55 PM 69.1 °F 36.0 °F 30% 29.86 in 10.0 mi Calm Calm - N/A   Scattered Clouds
11:55 PM 66.9 °F 39.9 °F 37% 29.86 in 10.0 mi Calm Calm - N/A   Clear